STATLINK-35318

导读

STARLINK-35318是美国SpaceX公司星链(Starlink)卫星互联网星座的一员,于2025年10月25日从美国佛罗里达州发射升空,属于星链大规模组网中的一颗卫星。该卫星运行在近地轨道,主要使命是为全球偏远地区、地面网络覆盖不足区域提供低延迟、高速宽带互联网接入服务,助力星链实现全球卫星互联网组网覆盖,目前处于正常在轨运行状态。

Basic Information
目录编号:
66146
目录名称:
STARLINK-35318
国际标识:
2025-240A
轨道中心:
EARTH
卫星名称:
STARLINK-35318
卫星全名:
STATLINK-35318
卫星状态:
在轨 (已飞行231 天)
发射日期:
2025-10-25 UTC
国别 :
美国 (US)
星等 :
--
Orbit Information
数据来源 国际轨道数据
星历时间: 2026-06-13T02:36:57+0800
19小时前
查看轨道信息
半长轴: 6840.769km
偏心率: 0.0001076
轨道倾角: 53.159°
近地点辐角 163.341°
升交点赤经 339.946°
平近点角 196.762°
近地点: 461.895km
远地点: 463.369km
周期: 93.846分钟
每日圈数: 15.344241
Detailed Information
使用方式:
暂无
2D Orbit Map
3D Orbit Map
Orbit Altitude Analysis Chart
Orbit Inclination Analysis Chart
Orbit Comprehensive Analysis Chart
View Comprehensive Chart